TimeCDT,TemperatureF,Dew PointF,Humidity,Sea Level PressureIn,VisibilityMPH,Wind Direction,Wind SpeedMPH,Gust SpeedMPH,PrecipitationIn,Events,Conditions,WindDirDegrees,DateUTC
12:54 AM,57.0,52.0,83,30.04,10.0,West,4.6,-,N/A,,Clear,270,2013-09-20 05:54:00
1:54 AM,55.9,51.1,84,30.05,10.0,WNW,4.6,-,N/A,,Clear,290,2013-09-20 06:54:00
2:54 AM,55.9,50.0,80,30.05,10.0,NW,6.9,-,N/A,,Clear,320,2013-09-20 07:54:00
3:54 AM,55.0,48.0,77,30.05,10.0,NW,5.8,-,N/A,,Clear,320,2013-09-20 08:54:00
4:54 AM,53.1,46.9,80,30.06,10.0,WNW,4.6,-,N/A,,Clear,300,2013-09-20 09:54:00
5:54 AM,52.0,46.0,80,30.07,10.0,Calm,Calm,-,N/A,,Clear,0,2013-09-20 10:54:00
6:54 AM,51.1,45.0,80,30.09,10.0,WNW,3.5,-,N/A,,Clear,290,2013-09-20 11:54:00
7:54 AM,48.0,45.0,89,30.11,10.0,SW,3.5,-,N/A,,Clear,220,2013-09-20 12:54:00
8:54 AM,54.0,44.1,69,30.12,10.0,WNW,5.8,-,N/A,,Clear,300,2013-09-20 13:54:00
9:54 AM,60.1,44.1,55,30.12,10.0,NNW,11.5,-,N/A,,Clear,330,2013-09-20 14:54:00
10:54 AM,63.0,42.1,46,30.11,10.0,NW,19.6,23.0,N/A,,Clear,320,2013-09-20 15:54:00
11:54 AM,64.0,42.1,45,30.10,10.0,NNW,13.8,23.0,N/A,,Clear,330,2013-09-20 16:54:00
12:54 PM,66.9,43.0,42,30.07,10.0,NW,17.3,21.9,N/A,,Clear,310,2013-09-20 17:54:00
1:54 PM,69.1,42.1,38,30.04,10.0,North,13.8,19.6,N/A,,Clear,350,2013-09-20 18:54:00
2:54 PM,71.1,42.1,35,30.01,10.0,North,13.8,-,N/A,,Clear,350,2013-09-20 19:54:00
3:54 PM,72.0,41.0,33,30.00,10.0,NNW,10.4,-,N/A,,Clear,340,2013-09-20 20:54:00
4:54 PM,72.0,41.0,33,29.99,10.0,NNW,11.5,23.0,N/A,,Clear,330,2013-09-20 21:54:00
5:54 PM,72.0,41.0,33,29.99,10.0,NNW,12.7,-,N/A,,Clear,340,2013-09-20 22:54:00
6:54 PM,70.0,41.0,35,29.99,10.0,NW,6.9,-,N/A,,Clear,320,2013-09-20 23:54:00
7:54 PM,61.0,44.1,54,30.01,10.0,North,3.5,-,N/A,,Clear,350,2013-09-21 00:54:00
8:54 PM,59.0,45.0,60,30.01,10.0,Calm,Calm,-,N/A,,Clear,0,2013-09-21 01:54:00
9:54 PM,52.0,46.0,80,30.03,10.0,Calm,Calm,-,N/A,,Clear,0,2013-09-21 02:54:00
10:54 PM,50.0,46.0,86,30.04,10.0,Calm,Calm,-,N/A,,Clear,0,2013-09-21 03:54:00
11:54 PM,48.0,45.0,89,30.04,10.0,North,4.6,-,N/A,,Clear,360,2013-09-21 04:54:00